owner,sensor,date,latitude,longitude,vertical_datum,sea_water_temperature,qcFlag 
ENP,ioos.station.NOAA.NDBC:CWAF1:1,2017-09-01T00:00:00Z,25.2970,-81.0130,1.0,33.83,2 
ENP,ioos.station.NOAA.NDBC:CWAF1:1,2017-09-01T03:00:00Z,25.2970,-81.0130,1.0,31.98,2 
ENP,ioos.station.NOAA.NDBC:CWAF1:1,2017-09-01T06:00:00Z,25.2970,-81.0130,1.0,31.46,2 
ENP,ioos.station.NOAA.NDBC:CWAF1:1,2017-09-01T07:00:00Z,25.2970,-81.0130,1.0,31.46,2 
ENP,ioos.station.NOAA.NDBC:CWAF1:1,2017-09-01T08:00:00Z,25.2970,-81.0130,1.0,31.28,2 
ENP,ioos.station.NOAA.NDBC:CWAF1:1,2017-09-01T10:00:00Z,25.2970,-81.0130,1.0,31.43,2 
ENP,ioos.station.NOAA.NDBC:CWAF1:1,2017-09-01T11:00:00Z,25.2970,-81.0130,1.0,30.94,2 
ENP,ioos.station.NOAA.NDBC:CWAF1:1,2017-09-01T13:00:00Z,25.2970,-81.0130,1.0,30.69,2 
ENP,ioos.station.NOAA.NDBC:CWAF1:1,2017-09-01T14:00:00Z,25.2970,-81.0130,1.0,30.98,2 
ENP,ioos.station.NOAA.NDBC:CWAF1:1,2017-09-01T15:00:00Z,25.2970,-81.0130,1.0,31.13,2 
ENP,ioos.station.NOAA.NDBC:CWAF1:1,2017-09-01T17:00:00Z,25.2970,-81.0130,1.0,31.72,2 
ENP,ioos.station.NOAA.NDBC:CWAF1:1,2017-09-01T18:00:00Z,25.2970,-81.0130,1.0,32.02,2 
ENP,ioos.station.NOAA.NDBC:CWAF1:1,2017-09-01T19:00:00Z,25.2970,-81.0130,1.0,32.41,2 
ENP,ioos.station.NOAA.NDBC:CWAF1:1,2017-09-01T20:00:00Z,25.2970,-81.0130,1.0,32.64,2 
ENP,ioos.station.NOAA.NDBC:CWAF1:1,2017-09-01T21:00:00Z,25.2970,-81.0130,1.0,32.84,2 
ENP,ioos.station.NOAA.NDBC:CWAF1:1,2017-09-01T23:00:00Z,25.2970,-81.0130,1.0,33.0,2 
ENP,ioos.station.NOAA.NDBC:CWAF1:1,2017-09-02T00:00:00Z,25.2970,-81.0130,1.0,32.95,2 
ENP,ioos.station.NOAA.NDBC:CWAF1:1,2017-09-02T03:00:00Z,25.2970,-81.0130,1.0,32.32,2 
ENP,ioos.station.NOAA.NDBC:CWAF1:1,2017-09-02T06:00:00Z,25.2970,-81.0130,1.0,31.63,2 
ENP,ioos.station.NOAA.NDBC:CWAF1:1,2017-09-02T07:00:00Z,25.2970,-81.0130,1.0,31.59,2 
ENP,ioos.station.NOAA.NDBC:CWAF1:1,2017-09-02T08:00:00Z,25.2970,-81.0130,1.0,31.47,2 
ENP,ioos.station.NOAA.NDBC:CWAF1:1,2017-09-02T10:00:00Z,25.2970,-81.0130,1.0,31.06,2 
ENP,ioos.station.NOAA.NDBC:CWAF1:1,2017-09-02T11:00:00Z,25.2970,-81.0130,1.0,30.92,2 
ENP,ioos.station.NOAA.NDBC:CWAF1:1,2017-09-02T12:00:00Z,25.2970,-81.0130,1.0,30.71,2 
ENP,ioos.station.NOAA.NDBC:CWAF1:1,2017-09-02T13:00:00Z,25.2970,-81.0130,1.0,30.49,2 
ENP,ioos.station.NOAA.NDBC:CWAF1:1,2017-09-02T14:00:00Z,25.2970,-81.0130,1.0,30.42,2 
ENP,ioos.station.NOAA.NDBC:CWAF1:1,2017-09-02T15:00:00Z,25.2970,-81.0130,1.0,30.37,2 
ENP,ioos.station.NOAA.NDBC:CWAF1:1,2017-09-02T16:00:00Z,25.2970,-81.0130,1.0,30.69,2 
ENP,ioos.station.NOAA.NDBC:CWAF1:1,2017-09-02T17:00:00Z,25.2970,-81.0130,1.0,31.06,2 
ENP,ioos.station.NOAA.NDBC:CWAF1:1,2017-09-02T18:00:00Z,25.2970,-81.0130,1.0,31.15,2 
ENP,ioos.station.NOAA.NDBC:CWAF1:1,2017-09-02T19:00:00Z,25.2970,-81.0130,1.0,31.34,2 
ENP,ioos.station.NOAA.NDBC:CWAF1:1,2017-09-02T20:00:00Z,25.2970,-81.0130,1.0,31.6,2 
ENP,ioos.station.NOAA.NDBC:CWAF1:1,2017-09-02T21:00:00Z,25.2970,-81.0130,1.0,31.78,2 
ENP,ioos.station.NOAA.NDBC:CWAF1:1,2017-09-02T22:00:00Z,25.2970,-81.0130,1.0,31.81,2 
ENP,ioos.station.NOAA.NDBC:CWAF1:1,2017-09-02T23:00:00Z,25.2970,-81.0130,1.0,31.83,2 
ENP,ioos.station.NOAA.NDBC:CWAF1:1,2017-09-03T00:00:00Z,25.2970,-81.0130,1.0,31.85,2 
ENP,ioos.station.NOAA.NDBC:CWAF1:1,2017-09-03T03:00:00Z,25.2970,-81.0130,1.0,31.21,2 
ENP,ioos.station.NOAA.NDBC:CWAF1:1,2017-09-03T06:00:00Z,25.2970,-81.0130,1.0,30.64,2 
ENP,ioos.station.NOAA.NDBC:CWAF1:1,2017-09-03T07:00:00Z,25.2970,-81.0130,1.0,30.62,2 
ENP,ioos.station.NOAA.NDBC:CWAF1:1,2017-09-03T08:00:00Z,25.2970,-81.0130,1.0,30.5,2 
ENP,ioos.station.NOAA.NDBC:CWAF1:1,2017-09-03T11:00:00Z,25.2970,-81.0130,1.0,30.23,2 
ENP,ioos.station.NOAA.NDBC:CWAF1:1,2017-09-03T12:00:00Z,25.2970,-81.0130,1.0,30.08,2 
ENP,ioos.station.NOAA.NDBC:CWAF1:1,2017-09-03T13:00:00Z,25.2970,-81.0130,1.0,30.15,2 
ENP,ioos.station.NOAA.NDBC:CWAF1:1,2017-09-03T14:00:00Z,25.2970,-81.0130,1.0,30.23,2 
ENP,ioos.station.NOAA.NDBC:CWAF1:1,2017-09-03T15:00:00Z,25.2970,-81.0130,1.0,30.36,2 
ENP,ioos.station.NOAA.NDBC:CWAF1:1,2017-09-03T16:00:00Z,25.2970,-81.0130,1.0,30.94,2 
ENP,ioos.station.NOAA.NDBC:CWAF1:1,2017-09-03T17:00:00Z,25.2970,-81.0130,1.0,31.37,2 
ENP,ioos.station.NOAA.NDBC:CWAF1:1,2017-09-03T19:00:00Z,25.2970,-81.0130,1.0,32.22,2 
ENP,ioos.station.NOAA.NDBC:CWAF1:1,2017-09-03T20:00:00Z,25.2970,-81.0130,1.0,31.7,2 
ENP,ioos.station.NOAA.NDBC:CWAF1:1,2017-09-03T21:00:00Z,25.2970,-81.0130,1.0,31.76,2 
ENP,ioos.station.NOAA.NDBC:CWAF1:1,2017-09-03T22:00:00Z,25.2970,-81.0130,1.0,31.79,2 
ENP,ioos.station.NOAA.NDBC:CWAF1:1,2017-09-03T23:00:00Z,25.2970,-81.0130,1.0,31.79,2 
ENP,ioos.station.NOAA.NDBC:CWAF1:1,2017-09-04T00:00:00Z,25.2970,-81.0130,1.0,30.76,2 
ENP,ioos.station.NOAA.NDBC:CWAF1:1,2017-09-04T03:00:00Z,25.2970,-81.0130,1.0,30.22,2 
ENP,ioos.station.NOAA.NDBC:CWAF1:1,2017-09-04T06:00:00Z,25.2970,-81.0130,1.0,29.79,2 
ENP,ioos.station.NOAA.NDBC:CWAF1:1,2017-09-04T07:00:00Z,25.2970,-81.0130,1.0,29.7,2 
ENP,ioos.station.NOAA.NDBC:CWAF1:1,2017-09-04T11:00:00Z,25.2970,-81.0130,1.0,29.37,2 
ENP,ioos.station.NOAA.NDBC:CWAF1:1,2017-09-04T13:00:00Z,25.2970,-81.0130,1.0,29.42,2 
ENP,ioos.station.NOAA.NDBC:CWAF1:1,2017-09-04T14:00:00Z,25.2970,-81.0130,1.0,29.69,2 
ENP,ioos.station.NOAA.NDBC:CWAF1:1,2017-09-04T15:00:00Z,25.2970,-81.0130,1.0,30.06,2 
ENP,ioos.station.NOAA.NDBC:CWAF1:1,2017-09-04T16:00:00Z,25.2970,-81.0130,1.0,30.57,2 
ENP,ioos.station.NOAA.NDBC:CWAF1:1,2017-09-04T17:00:00Z,25.2970,-81.0130,1.0,31.23,2 
ENP,ioos.station.NOAA.NDBC:CWAF1:1,2017-09-04T19:00:00Z,25.2970,-81.0130,1.0,31.36,2 
ENP,ioos.station.NOAA.NDBC:CWAF1:1,2017-09-04T20:00:00Z,25.2970,-81.0130,1.0,31.43,2 
ENP,ioos.station.NOAA.NDBC:CWAF1:1,2017-09-04T21:00:00Z,25.2970,-81.0130,1.0,31.45,2 
ENP,ioos.station.NOAA.NDBC:CWAF1:1,2017-09-04T23:00:00Z,25.2970,-81.0130,1.0,31.05,2 
ENP,ioos.station.NOAA.NDBC:CWAF1:1,2017-09-05T03:00:00Z,25.2970,-81.0130,1.0,30.08,2 
ENP,ioos.station.NOAA.NDBC:CWAF1:1,2017-09-05T06:00:00Z,25.2970,-81.0130,1.0,29.82,2 
ENP,ioos.station.NOAA.NDBC:CWAF1:1,2017-09-05T07:00:00Z,25.2970,-81.0130,1.0,29.85,2 
ENP,ioos.station.NOAA.NDBC:CWAF1:1,2017-09-05T10:00:00Z,25.2970,-81.0130,1.0,29.43,2 
ENP,ioos.station.NOAA.NDBC:CWAF1:1,2017-09-05T11:00:00Z,25.2970,-81.0130,1.0,29.59,2 
ENP,ioos.station.NOAA.NDBC:CWAF1:1,2017-09-05T13:00:00Z,25.2970,-81.0130,1.0,29.63,2 
ENP,ioos.station.NOAA.NDBC:CWAF1:1,2017-09-05T14:00:00Z,25.2970,-81.0130,1.0,29.75,2 
ENP,ioos.station.NOAA.NDBC:CWAF1:1,2017-09-05T15:00:00Z,25.2970,-81.0130,1.0,30.16,2 
ENP,ioos.station.NOAA.NDBC:CWAF1:1,2017-09-05T17:00:00Z,25.2970,-81.0130,1.0,30.96,2 
ENP,ioos.station.NOAA.NDBC:CWAF1:1,2017-09-05T18:00:00Z,25.2970,-81.0130,1.0,31.34,2 
ENP,ioos.station.NOAA.NDBC:CWAF1:1,2017-09-05T20:00:00Z,25.2970,-81.0130,1.0,31.39,2 
ENP,ioos.station.NOAA.NDBC:CWAF1:1,2017-09-05T23:00:00Z,25.2970,-81.0130,1.0,31.41,2 
ENP,ioos.station.NOAA.NDBC:CWAF1:1,2017-09-06T10:00:00Z,25.2970,-81.0130,1.0,29.77,2 
ENP,ioos.station.NOAA.NDBC:CWAF1:1,2017-09-21T19:00:00Z,25.2970,-81.0130,1.0,32.54,2 
ENP,ioos.station.NOAA.NDBC:CWAF1:1,2017-09-21T20:00:00Z,25.2970,-81.0130,1.0,32.82,2 
ENP,ioos.station.NOAA.NDBC:CWAF1:1,2017-09-21T21:00:00Z,25.2970,-81.0130,1.0,33.49,2 
ENP,ioos.station.NOAA.NDBC:CWAF1:1,2017-09-21T22:00:00Z,25.2970,-81.0130,1.0,31.39,2 
ENP,ioos.station.NOAA.NDBC:CWAF1:1,2017-09-21T23:00:00Z,25.2970,-81.0130,1.0,31.34,2 
ENP,ioos.station.NOAA.NDBC:CWAF1:1,2017-09-22T00:00:00Z,25.2970,-81.0130,1.0,31.37,2 
ENP,ioos.station.NOAA.NDBC:CWAF1:1,2017-09-22T02:00:00Z,25.2970,-81.0130,1.0,31.42,2 
ENP,ioos.station.NOAA.NDBC:CWAF1:1,2017-09-22T03:00:00Z,25.2970,-81.0130,1.0,31.38,2 
ENP,ioos.station.NOAA.NDBC:CWAF1:1,2017-09-22T05:00:00Z,25.2970,-81.0130,1.0,30.82,2 
ENP,ioos.station.NOAA.NDBC:CWAF1:1,2017-09-22T06:00:00Z,25.2970,-81.0130,1.0,30.72,2 
ENP,ioos.station.NOAA.NDBC:CWAF1:1,2017-09-22T07:00:00Z,25.2970,-81.0130,1.0,30.28,2 
ENP,ioos.station.NOAA.NDBC:CWAF1:1,2017-09-22T08:00:00Z,25.2970,-81.0130,1.0,29.7,2 
ENP,ioos.station.NOAA.NDBC:CWAF1:1,2017-09-22T10:00:00Z,25.2970,-81.0130,1.0,29.26,2 
ENP,ioos.station.NOAA.NDBC:CWAF1:1,2017-09-22T11:00:00Z,25.2970,-81.0130,1.0,29.84,2 
ENP,ioos.station.NOAA.NDBC:CWAF1:1,2017-09-22T12:00:00Z,25.2970,-81.0130,1.0,29.82,2 
ENP,ioos.station.NOAA.NDBC:CWAF1:1,2017-09-22T13:00:00Z,25.2970,-81.0130,1.0,29.67,2 
ENP,ioos.station.NOAA.NDBC:CWAF1:1,2017-09-22T14:00:00Z,25.2970,-81.0130,1.0,29.75,2 
ENP,ioos.station.NOAA.NDBC:CWAF1:1,2017-09-22T15:00:00Z,25.2970,-81.0130,1.0,30.08,2 
ENP,ioos.station.NOAA.NDBC:CWAF1:1,2017-09-22T16:00:00Z,25.2970,-81.0130,1.0,30.87,2 
ENP,ioos.station.NOAA.NDBC:CWAF1:1,2017-09-22T17:00:00Z,25.2970,-81.0130,1.0,31.36,2 
ENP,ioos.station.NOAA.NDBC:CWAF1:1,2017-09-22T18:00:00Z,25.2970,-81.0130,1.0,31.63,2 
ENP,ioos.station.NOAA.NDBC:CWAF1:1,2017-09-22T19:00:00Z,25.2970,-81.0130,1.0,31.08,2 
ENP,ioos.station.NOAA.NDBC:CWAF1:1,2017-09-22T20:00:00Z,25.2970,-81.0130,1.0,31.0,2 
ENP,ioos.station.NOAA.NDBC:CWAF1:1,2017-09-22T21:00:00Z,25.2970,-81.0130,1.0,30.78,2 
ENP,ioos.station.NOAA.NDBC:CWAF1:1,2017-09-22T22:00:00Z,25.2970,-81.0130,1.0,30.48,2 
ENP,ioos.station.NOAA.NDBC:CWAF1:1,2017-09-22T23:00:00Z,25.2970,-81.0130,1.0,30.44,2 
ENP,ioos.station.NOAA.NDBC:CWAF1:1,2017-09-23T00:00:00Z,25.2970,-81.0130,1.0,30.47,2 
ENP,ioos.station.NOAA.NDBC:CWAF1:1,2017-09-23T02:00:00Z,25.2970,-81.0130,1.0,30.66,2 
ENP,ioos.station.NOAA.NDBC:CWAF1:1,2017-09-23T03:00:00Z,25.2970,-81.0130,1.0,29.86,2 
ENP,ioos.station.NOAA.NDBC:CWAF1:1,2017-09-23T05:00:00Z,25.2970,-81.0130,1.0,29.67,2 
ENP,ioos.station.NOAA.NDBC:CWAF1:1,2017-09-23T06:00:00Z,25.2970,-81.0130,1.0,29.63,2 
ENP,ioos.station.NOAA.NDBC:CWAF1:1,2017-09-23T07:00:00Z,25.2970,-81.0130,1.0,29.49,2 
ENP,ioos.station.NOAA.NDBC:CWAF1:1,2017-09-23T08:00:00Z,25.2970,-81.0130,1.0,29.31,2 
ENP,ioos.station.NOAA.NDBC:CWAF1:1,2017-09-23T10:00:00Z,25.2970,-81.0130,1.0,28.81,2 
ENP,ioos.station.NOAA.NDBC:CWAF1:1,2017-09-23T11:00:00Z,25.2970,-81.0130,1.0,28.65,2 
ENP,ioos.station.NOAA.NDBC:CWAF1:1,2017-09-23T12:00:00Z,25.2970,-81.0130,1.0,29.14,2 
ENP,ioos.station.NOAA.NDBC:CWAF1:1,2017-09-23T13:00:00Z,25.2970,-81.0130,1.0,29.61,2 
ENP,ioos.station.NOAA.NDBC:CWAF1:1,2017-09-23T14:00:00Z,25.2970,-81.0130,1.0,29.47,2 
ENP,ioos.station.NOAA.NDBC:CWAF1:1,2017-09-23T15:00:00Z,25.2970,-81.0130,1.0,29.28,2 
ENP,ioos.station.NOAA.NDBC:CWAF1:1,2017-09-23T16:00:00Z,25.2970,-81.0130,1.0,29.4,2 
ENP,ioos.station.NOAA.NDBC:CWAF1:1,2017-09-23T17:00:00Z,25.2970,-81.0130,1.0,30.0,2 
ENP,ioos.station.NOAA.NDBC:CWAF1:1,2017-09-23T18:00:00Z,25.2970,-81.0130,1.0,30.4,2 
ENP,ioos.station.NOAA.NDBC:CWAF1:1,2017-09-23T19:00:00Z,25.2970,-81.0130,1.0,30.57,2 
ENP,ioos.station.NOAA.NDBC:CWAF1:1,2017-09-23T20:00:00Z,25.2970,-81.0130,1.0,30.88,2 
ENP,ioos.station.NOAA.NDBC:CWAF1:1,2017-09-23T21:00:00Z,25.2970,-81.0130,1.0,31.23,2 
ENP,ioos.station.NOAA.NDBC:CWAF1:1,2017-09-23T22:00:00Z,25.2970,-81.0130,1.0,31.26,2 
ENP,ioos.station.NOAA.NDBC:CWAF1:1,2017-09-23T23:00:00Z,25.2970,-81.0130,1.0,31.47,2 
ENP,ioos.station.NOAA.NDBC:CWAF1:1,2017-09-24T00:00:00Z,25.2970,-81.0130,1.0,30.57,2 
ENP,ioos.station.NOAA.NDBC:CWAF1:1,2017-09-24T02:00:00Z,25.2970,-81.0130,1.0,30.35,2 
ENP,ioos.station.NOAA.NDBC:CWAF1:1,2017-09-24T03:00:00Z,25.2970,-81.0130,1.0,30.37,2 
ENP,ioos.station.NOAA.NDBC:CWAF1:1,2017-09-24T05:00:00Z,25.2970,-81.0130,1.0,30.37,2 
ENP,ioos.station.NOAA.NDBC:CWAF1:1,2017-09-24T06:00:00Z,25.2970,-81.0130,1.0,30.31,2 
ENP,ioos.station.NOAA.NDBC:CWAF1:1,2017-09-24T07:00:00Z,25.2970,-81.0130,1.0,30.2,2 
ENP,ioos.station.NOAA.NDBC:CWAF1:1,2017-09-24T08:00:00Z,25.2970,-81.0130,1.0,29.4,2 
ENP,ioos.station.NOAA.NDBC:CWAF1:1,2017-09-24T10:00:00Z,25.2970,-81.0130,1.0,29.37,2 
ENP,ioos.station.NOAA.NDBC:CWAF1:1,2017-09-24T11:00:00Z,25.2970,-81.0130,1.0,28.65,2 
ENP,ioos.station.NOAA.NDBC:CWAF1:1,2017-09-24T12:00:00Z,25.2970,-81.0130,1.0,29.84,2 
ENP,ioos.station.NOAA.NDBC:CWAF1:1,2017-09-24T13:00:00Z,25.2970,-81.0130,1.0,29.92,2 
ENP,ioos.station.NOAA.NDBC:CWAF1:1,2017-09-24T14:00:00Z,25.2970,-81.0130,1.0,29.93,2 
ENP,ioos.station.NOAA.NDBC:CWAF1:1,2017-09-24T15:00:00Z,25.2970,-81.0130,1.0,30.02,2 
ENP,ioos.station.NOAA.NDBC:CWAF1:1,2017-09-24T16:00:00Z,25.2970,-81.0130,1.0,30.13,2 
ENP,ioos.station.NOAA.NDBC:CWAF1:1,2017-09-24T17:00:00Z,25.2970,-81.0130,1.0,30.33,2 
ENP,ioos.station.NOAA.NDBC:CWAF1:1,2017-09-24T18:00:00Z,25.2970,-81.0130,1.0,30.72,2 
ENP,ioos.station.NOAA.NDBC:CWAF1:1,2017-09-24T19:00:00Z,25.2970,-81.0130,1.0,31.57,2 
ENP,ioos.station.NOAA.NDBC:CWAF1:1,2017-09-24T20:00:00Z,25.2970,-81.0130,1.0,31.79,2 
ENP,ioos.station.NOAA.NDBC:CWAF1:1,2017-09-24T21:00:00Z,25.2970,-81.0130,1.0,31.89,2 
ENP,ioos.station.NOAA.NDBC:CWAF1:1,2017-09-24T22:00:00Z,25.2970,-81.0130,1.0,30.48,2 
ENP,ioos.station.NOAA.NDBC:CWAF1:1,2017-09-24T23:00:00Z,25.2970,-81.0130,1.0,30.45,2 
ENP,ioos.station.NOAA.NDBC:CWAF1:1,2017-09-25T00:00:00Z,25.2970,-81.0130,1.0,30.43,2 
ENP,ioos.station.NOAA.NDBC:CWAF1:1,2017-09-25T02:00:00Z,25.2970,-81.0130,1.0,30.62,2 
ENP,ioos.station.NOAA.NDBC:CWAF1:1,2017-09-25T03:00:00Z,25.2970,-81.0130,1.0,30.62,2 
ENP,ioos.station.NOAA.NDBC:CWAF1:1,2017-09-25T05:00:00Z,25.2970,-81.0130,1.0,30.43,2 
ENP,ioos.station.NOAA.NDBC:CWAF1:1,2017-09-25T06:00:00Z,25.2970,-81.0130,1.0,30.34,2 
ENP,ioos.station.NOAA.NDBC:CWAF1:1,2017-09-25T07:00:00Z,25.2970,-81.0130,1.0,30.23,2 
ENP,ioos.station.NOAA.NDBC:CWAF1:1,2017-09-25T08:00:00Z,25.2970,-81.0130,1.0,29.85,2 
ENP,ioos.station.NOAA.NDBC:CWAF1:1,2017-09-25T10:00:00Z,25.2970,-81.0130,1.0,29.98,2 
ENP,ioos.station.NOAA.NDBC:CWAF1:1,2017-09-25T11:00:00Z,25.2970,-81.0130,1.0,29.63,2 
ENP,ioos.station.NOAA.NDBC:CWAF1:1,2017-09-25T12:00:00Z,25.2970,-81.0130,1.0,29.61,2 
ENP,ioos.station.NOAA.NDBC:CWAF1:1,2017-09-25T13:00:00Z,25.2970,-81.0130,1.0,30.4,2 
ENP,ioos.station.NOAA.NDBC:CWAF1:1,2017-09-25T14:00:00Z,25.2970,-81.0130,1.0,30.34,2 
ENP,ioos.station.NOAA.NDBC:CWAF1:1,2017-09-25T15:00:00Z,25.2970,-81.0130,1.0,30.49,2 
ENP,ioos.station.NOAA.NDBC:CWAF1:1,2017-09-25T16:00:00Z,25.2970,-81.0130,1.0,30.54,2 
ENP,ioos.station.NOAA.NDBC:CWAF1:1,2017-09-25T17:00:00Z,25.2970,-81.0130,1.0,30.59,2 
ENP,ioos.station.NOAA.NDBC:CWAF1:1,2017-09-25T18:00:00Z,25.2970,-81.0130,1.0,30.74,2 
ENP,ioos.station.NOAA.NDBC:CWAF1:1,2017-09-25T19:00:00Z,25.2970,-81.0130,1.0,31.03,2 
ENP,ioos.station.NOAA.NDBC:CWAF1:1,2017-09-25T20:00:00Z,25.2970,-81.0130,1.0,31.96,2 
ENP,ioos.station.NOAA.NDBC:CWAF1:1,2017-09-25T21:00:00Z,25.2970,-81.0130,1.0,31.85,2 
ENP,ioos.station.NOAA.NDBC:CWAF1:1,2017-09-25T22:00:00Z,25.2970,-81.0130,1.0,31.75,2 
ENP,ioos.station.NOAA.NDBC:CWAF1:1,2017-09-25T23:00:00Z,25.2970,-81.0130,1.0,31.67,2 
ENP,ioos.station.NOAA.NDBC:CWAF1:1,2017-09-26T00:00:00Z,25.2970,-81.0130,1.0,30.94,2 
ENP,ioos.station.NOAA.NDBC:CWAF1:1,2017-09-26T02:00:00Z,25.2970,-81.0130,1.0,30.7,2 
ENP,ioos.station.NOAA.NDBC:CWAF1:1,2017-09-26T03:00:00Z,25.2970,-81.0130,1.0,30.77,2 
ENP,ioos.station.NOAA.NDBC:CWAF1:1,2017-09-26T05:00:00Z,25.2970,-81.0130,1.0,30.85,2 
ENP,ioos.station.NOAA.NDBC:CWAF1:1,2017-09-26T06:00:00Z,25.2970,-81.0130,1.0,30.8,2 
ENP,ioos.station.NOAA.NDBC:CWAF1:1,2017-09-26T07:00:00Z,25.2970,-81.0130,1.0,30.71,2 
ENP,ioos.station.NOAA.NDBC:CWAF1:1,2017-09-26T08:00:00Z,25.2970,-81.0130,1.0,30.49,2 
ENP,ioos.station.NOAA.NDBC:CWAF1:1,2017-09-26T09:00:00Z,25.2970,-81.0130,1.0,30.52,2 
ENP,ioos.station.NOAA.NDBC:CWAF1:1,2017-09-26T11:00:00Z,25.2970,-81.0130,1.0,30.33,2 
ENP,ioos.station.NOAA.NDBC:CWAF1:1,2017-09-26T12:00:00Z,25.2970,-81.0130,1.0,29.63,2 
ENP,ioos.station.NOAA.NDBC:CWAF1:1,2017-09-26T13:00:00Z,25.2970,-81.0130,1.0,29.98,2 
ENP,ioos.station.NOAA.NDBC:CWAF1:1,2017-09-26T14:00:00Z,25.2970,-81.0130,1.0,29.95,2 
ENP,ioos.station.NOAA.NDBC:CWAF1:1,2017-09-26T15:00:00Z,25.2970,-81.0130,1.0,30.0,2 
ENP,ioos.station.NOAA.NDBC:CWAF1:1,2017-09-26T16:00:00Z,25.2970,-81.0130,1.0,30.08,2 
ENP,ioos.station.NOAA.NDBC:CWAF1:1,2017-09-26T17:00:00Z,25.2970,-81.0130,1.0,30.12,2 
ENP,ioos.station.NOAA.NDBC:CWAF1:1,2017-09-26T18:00:00Z,25.2970,-81.0130,1.0,30.21,2 
ENP,ioos.station.NOAA.NDBC:CWAF1:1,2017-09-26T19:00:00Z,25.2970,-81.0130,1.0,30.45,2 
ENP,ioos.station.NOAA.NDBC:CWAF1:1,2017-09-26T20:00:00Z,25.2970,-81.0130,1.0,30.62,2 
ENP,ioos.station.NOAA.NDBC:CWAF1:1,2017-09-26T21:00:00Z,25.2970,-81.0130,1.0,30.86,2 
ENP,ioos.station.NOAA.NDBC:CWAF1:1,2017-09-26T22:00:00Z,25.2970,-81.0130,1.0,31.07,2 
ENP,ioos.station.NOAA.NDBC:CWAF1:1,2017-09-26T23:00:00Z,25.2970,-81.0130,1.0,31.09,2 
ENP,ioos.station.NOAA.NDBC:CWAF1:1,2017-09-27T00:00:00Z,25.2970,-81.0130,1.0,30.92,2 
ENP,ioos.station.NOAA.NDBC:CWAF1:1,2017-09-27T01:00:00Z,25.2970,-81.0130,1.0,30.47,2 
ENP,ioos.station.NOAA.NDBC:CWAF1:1,2017-09-27T03:00:00Z,25.2970,-81.0130,1.0,30.47,2 
ENP,ioos.station.NOAA.NDBC:CWAF1:1,2017-09-27T05:00:00Z,25.2970,-81.0130,1.0,30.41,2 
ENP,ioos.station.NOAA.NDBC:CWAF1:1,2017-09-27T06:00:00Z,25.2970,-81.0130,1.0,30.29,2 
ENP,ioos.station.NOAA.NDBC:CWAF1:1,2017-09-27T07:00:00Z,25.2970,-81.0130,1.0,29.92,2 
ENP,ioos.station.NOAA.NDBC:CWAF1:1,2017-09-27T08:00:00Z,25.2970,-81.0130,1.0,29.63,2 
ENP,ioos.station.NOAA.NDBC:CWAF1:1,2017-09-27T10:00:00Z,25.2970,-81.0130,1.0,29.47,2 
ENP,ioos.station.NOAA.NDBC:CWAF1:1,2017-09-27T11:00:00Z,25.2970,-81.0130,1.0,29.63,2 
ENP,ioos.station.NOAA.NDBC:CWAF1:1,2017-09-27T12:00:00Z,25.2970,-81.0130,1.0,29.0,2 
ENP,ioos.station.NOAA.NDBC:CWAF1:1,2017-09-27T13:00:00Z,25.2970,-81.0130,1.0,29.28,2 
ENP,ioos.station.NOAA.NDBC:CWAF1:1,2017-09-27T14:00:00Z,25.2970,-81.0130,1.0,29.35,2 
ENP,ioos.station.NOAA.NDBC:CWAF1:1,2017-09-27T15:00:00Z,25.2970,-81.0130,1.0,29.8,2 
ENP,ioos.station.NOAA.NDBC:CWAF1:1,2017-09-27T16:00:00Z,25.2970,-81.0130,1.0,29.87,2 
ENP,ioos.station.NOAA.NDBC:CWAF1:1,2017-09-27T17:00:00Z,25.2970,-81.0130,1.0,30.08,2 
ENP,ioos.station.NOAA.NDBC:CWAF1:1,2017-09-27T18:00:00Z,25.2970,-81.0130,1.0,30.15,2 
ENP,ioos.station.NOAA.NDBC:CWAF1:1,2017-09-27T19:00:00Z,25.2970,-81.0130,1.0,30.35,2 
ENP,ioos.station.NOAA.NDBC:CWAF1:1,2017-09-27T20:00:00Z,25.2970,-81.0130,1.0,30.45,2 
ENP,ioos.station.NOAA.NDBC:CWAF1:1,2017-09-27T21:00:00Z,25.2970,-81.0130,1.0,30.6,2 
ENP,ioos.station.NOAA.NDBC:CWAF1:1,2017-09-27T22:00:00Z,25.2970,-81.0130,1.0,30.69,2 
ENP,ioos.station.NOAA.NDBC:CWAF1:1,2017-09-27T23:00:00Z,25.2970,-81.0130,1.0,30.76,2 
ENP,ioos.station.NOAA.NDBC:CWAF1:1,2017-09-28T00:00:00Z,25.2970,-81.0130,1.0,30.61,2 
ENP,ioos.station.NOAA.NDBC:CWAF1:1,2017-09-28T02:00:00Z,25.2970,-81.0130,1.0,30.45,2 
ENP,ioos.station.NOAA.NDBC:CWAF1:1,2017-09-28T03:00:00Z,25.2970,-81.0130,1.0,30.32,2 
ENP,ioos.station.NOAA.NDBC:CWAF1:1,2017-09-28T05:00:00Z,25.2970,-81.0130,1.0,30.0,2 
ENP,ioos.station.NOAA.NDBC:CWAF1:1,2017-09-28T06:00:00Z,25.2970,-81.0130,1.0,30.03,2 
ENP,ioos.station.NOAA.NDBC:CWAF1:1,2017-09-28T07:00:00Z,25.2970,-81.0130,1.0,30.03,2 
ENP,ioos.station.NOAA.NDBC:CWAF1:1,2017-09-28T08:00:00Z,25.2970,-81.0130,1.0,30.04,2 
ENP,ioos.station.NOAA.NDBC:CWAF1:1,2017-09-28T10:00:00Z,25.2970,-81.0130,1.0,29.25,2 
ENP,ioos.station.NOAA.NDBC:CWAF1:1,2017-09-28T11:00:00Z,25.2970,-81.0130,1.0,28.92,2 
ENP,ioos.station.NOAA.NDBC:CWAF1:1,2017-09-28T12:00:00Z,25.2970,-81.0130,1.0,29.0,2 
ENP,ioos.station.NOAA.NDBC:CWAF1:1,2017-09-28T13:00:00Z,25.2970,-81.0130,1.0,29.04,2 
ENP,ioos.station.NOAA.NDBC:CWAF1:1,2017-09-28T14:00:00Z,25.2970,-81.0130,1.0,28.86,2 
ENP,ioos.station.NOAA.NDBC:CWAF1:1,2017-09-28T15:00:00Z,25.2970,-81.0130,1.0,29.28,2 
ENP,ioos.station.NOAA.NDBC:CWAF1:1,2017-09-28T16:00:00Z,25.2970,-81.0130,1.0,29.61,2 
ENP,ioos.station.NOAA.NDBC:CWAF1:1,2017-09-28T17:00:00Z,25.2970,-81.0130,1.0,29.69,2 
ENP,ioos.station.NOAA.NDBC:CWAF1:1,2017-09-28T18:00:00Z,25.2970,-81.0130,1.0,29.8,2 
ENP,ioos.station.NOAA.NDBC:CWAF1:1,2017-09-28T19:00:00Z,25.2970,-81.0130,1.0,29.99,2 
ENP,ioos.station.NOAA.NDBC:CWAF1:1,2017-09-28T20:00:00Z,25.2970,-81.0130,1.0,30.31,2 
ENP,ioos.station.NOAA.NDBC:CWAF1:1,2017-09-28T21:00:00Z,25.2970,-81.0130,1.0,30.32,2 
ENP,ioos.station.NOAA.NDBC:CWAF1:1,2017-09-28T22:00:00Z,25.2970,-81.0130,1.0,30.47,2 
ENP,ioos.station.NOAA.NDBC:CWAF1:1,2017-09-28T23:00:00Z,25.2970,-81.0130,1.0,30.61,2 
ENP,ioos.station.NOAA.NDBC:CWAF1:1,2017-09-29T00:00:00Z,25.2970,-81.0130,1.0,30.56,2 
ENP,ioos.station.NOAA.NDBC:CWAF1:1,2017-09-29T01:00:00Z,25.2970,-81.0130,1.0,30.49,2 
ENP,ioos.station.NOAA.NDBC:CWAF1:1,2017-09-29T02:00:00Z,25.2970,-81.0130,1.0,30.38,2 
ENP,ioos.station.NOAA.NDBC:CWAF1:1,2017-09-29T03:00:00Z,25.2970,-81.0130,1.0,30.25,2 
ENP,ioos.station.NOAA.NDBC:CWAF1:1,2017-09-29T05:00:00Z,25.2970,-81.0130,1.0,29.76,2 
ENP,ioos.station.NOAA.NDBC:CWAF1:1,2017-09-29T06:00:00Z,25.2970,-81.0130,1.0,29.28,2 
ENP,ioos.station.NOAA.NDBC:CWAF1:1,2017-09-29T07:00:00Z,25.2970,-81.0130,1.0,29.12,2 
ENP,ioos.station.NOAA.NDBC:CWAF1:1,2017-09-29T08:00:00Z,25.2970,-81.0130,1.0,29.41,2 
ENP,ioos.station.NOAA.NDBC:CWAF1:1,2017-09-29T10:00:00Z,25.2970,-81.0130,1.0,29.17,2 
ENP,ioos.station.NOAA.NDBC:CWAF1:1,2017-09-29T11:00:00Z,25.2970,-81.0130,1.0,29.31,2 
ENP,ioos.station.NOAA.NDBC:CWAF1:1,2017-09-29T12:00:00Z,25.2970,-81.0130,1.0,28.94,2 
ENP,ioos.station.NOAA.NDBC:CWAF1:1,2017-09-29T13:00:00Z,25.2970,-81.0130,1.0,29.54,2 
ENP,ioos.station.NOAA.NDBC:CWAF1:1,2017-09-29T14:00:00Z,25.2970,-81.0130,1.0,29.56,2 
ENP,ioos.station.NOAA.NDBC:CWAF1:1,2017-09-29T15:00:00Z,25.2970,-81.0130,1.0,29.62,2 
ENP,ioos.station.NOAA.NDBC:CWAF1:1,2017-09-29T16:00:00Z,25.2970,-81.0130,1.0,29.46,2 
ENP,ioos.station.NOAA.NDBC:CWAF1:1,2017-09-29T17:00:00Z,25.2970,-81.0130,1.0,29.72,2 
ENP,ioos.station.NOAA.NDBC:CWAF1:1,2017-09-29T18:00:00Z,25.2970,-81.0130,1.0,29.73,2 
ENP,ioos.station.NOAA.NDBC:CWAF1:1,2017-09-29T19:00:00Z,25.2970,-81.0130,1.0,29.78,2 
ENP,ioos.station.NOAA.NDBC:CWAF1:1,2017-09-29T20:00:00Z,25.2970,-81.0130,1.0,29.85,2 
ENP,ioos.station.NOAA.NDBC:CWAF1:1,2017-09-29T21:00:00Z,25.2970,-81.0130,1.0,29.89,2 
ENP,ioos.station.NOAA.NDBC:CWAF1:1,2017-09-29T22:00:00Z,25.2970,-81.0130,1.0,29.94,2 
ENP,ioos.station.NOAA.NDBC:CWAF1:1,2017-09-29T23:00:00Z,25.2970,-81.0130,1.0,29.94,2 
ENP,ioos.station.NOAA.NDBC:CWAF1:1,2017-09-30T00:00:00Z,25.2970,-81.0130,1.0,29.96,2 
ENP,ioos.station.NOAA.NDBC:CWAF1:1,2017-09-30T02:00:00Z,25.2970,-81.0130,1.0,29.49,2 
ENP,ioos.station.NOAA.NDBC:CWAF1:1,2017-09-30T03:00:00Z,25.2970,-81.0130,1.0,29.62,2 
ENP,ioos.station.NOAA.NDBC:CWAF1:1,2017-09-30T05:00:00Z,25.2970,-81.0130,1.0,29.71,2 
ENP,ioos.station.NOAA.NDBC:CWAF1:1,2017-09-30T06:00:00Z,25.2970,-81.0130,1.0,29.64,2 
ENP,ioos.station.NOAA.NDBC:CWAF1:1,2017-09-30T07:00:00Z,25.2970,-81.0130,1.0,29.5,2 
ENP,ioos.station.NOAA.NDBC:CWAF1:1,2017-09-30T08:00:00Z,25.2970,-81.0130,1.0,29.31,2 
ENP,ioos.station.NOAA.NDBC:CWAF1:1,2017-09-30T10:00:00Z,25.2970,-81.0130,1.0,28.6,2 
ENP,ioos.station.NOAA.NDBC:CWAF1:1,2017-09-30T11:00:00Z,25.2970,-81.0130,1.0,28.41,2 
ENP,ioos.station.NOAA.NDBC:CWAF1:1,2017-09-30T12:00:00Z,25.2970,-81.0130,1.0,28.3,2 
ENP,ioos.station.NOAA.NDBC:CWAF1:1,2017-09-30T13:00:00Z,25.2970,-81.0130,1.0,28.25,2 
ENP,ioos.station.NOAA.NDBC:CWAF1:1,2017-09-30T14:00:00Z,25.2970,-81.0130,1.0,28.58,2 
ENP,ioos.station.NOAA.NDBC:CWAF1:1,2017-09-30T15:00:00Z,25.2970,-81.0130,1.0,29.02,2 
ENP,ioos.station.NOAA.NDBC:CWAF1:1,2017-09-30T16:00:00Z,25.2970,-81.0130,1.0,28.87,2 
ENP,ioos.station.NOAA.NDBC:CWAF1:1,2017-09-30T17:00:00Z,25.2970,-81.0130,1.0,28.97,2 
ENP,ioos.station.NOAA.NDBC:CWAF1:1,2017-09-30T18:00:00Z,25.2970,-81.0130,1.0,29.11,2 
ENP,ioos.station.NOAA.NDBC:CWAF1:1,2017-09-30T19:00:00Z,25.2970,-81.0130,1.0,29.2,2 
ENP,ioos.station.NOAA.NDBC:CWAF1:1,2017-09-30T20:00:00Z,25.2970,-81.0130,1.0,29.32,2 
ENP,ioos.station.NOAA.NDBC:CWAF1:1,2017-09-30T21:00:00Z,25.2970,-81.0130,1.0,29.43,2 
ENP,ioos.station.NOAA.NDBC:CWAF1:1,2017-09-30T22:00:00Z,25.2970,-81.0130,1.0,29.62,2 
ENP,ioos.station.NOAA.NDBC:CWAF1:1,2017-09-30T23:00:00Z,25.2970,-81.0130,1.0,29.77,2 
 